Location: Sihaung
(22.8641°N, 94.0549°E)
Time: 01:35:28
(UTC+00:00)

Delta 128 - Pass Details

Date: 03 March 2021
Orbit: 608 x 1216 km, 28.0° (Epoch: 13 April)

Event Time Altitude Azimuth Distance (km) Brightness Sun altitude
Rises 13:07:36 0° 284° (WNW) 3,793 9.1 -19.1°
Reaches altitude 10° 13:10:34 10° 288° (WNW) 2,743 7.9 -19.8°
Maximum altitude 13:17:03 59° 7° (N) 1,001 4.5 -21.3°
Enters shadow 13:18:49 41° 63° (ENE) 1,186 4.5 -21.7°
